Find Starlink 30349

NORAD ID: 57713 Int'l Des: 2023-129 Owner: SPXS Country: US Constellation: starlink operational
LEOCIRCULAR

現在のビュー

3D地球を読み込み中...

About Starlink 30349

Starlink 30349 (NORAD 57713) is a starlink constellation satellite (v2 mini) launched Aug 27, 2023 by SPXS of US. It operates in LEO, CIRCULAR orbit with a mass of 730.00 kg.

Starlink 30349について

説明を読み込み中...

次回通過

Passes for default location (London). Set your location on the main map for personalized predictions.

高度履歴

Loading altitude history...

軌道要素

1 57713U 23129R 26170.71441914 .00001157 00000-0 51584-4 0 9998
2 57713 43.0073 261.9120 0002742 258.4805 101.5739 15.27579131156144
Epoch: Jun 19, 2026 • Age: 53 hours

現在のステータス

高度 482.6 km
速度 7.63 km/s
衛星直下点 7.03°N, 173.17°W
打ち上げ日 Aug 27, 2023
運用期間 2.8 years
タイプ internet

技術仕様

分類 Payload
質量 730.00 kg
乾燥質量 700.00 kg
総質量 730.00 kg
長さ 0.30 m
直径 4.10 m
スパン 29.00 m
形状 Box + pan
製造者 SPXS
バスタイプ Starlink V2M
フェーズステータス In Orbit
所有者/国 SPXS/US

Most Searched